Orbital Elements at Epoch 2459200.5 (2020-Dec-17.0) TDB
Reference: JPL 20 (heliocentric ecliptic J2000)
Element | Value | Uncertainty (1-sigma) | Units |
e | .06165325016342638 | 6.6556e-08 | |
a | 1.952285789974214 | 8.4491e-09 | au |
q | 1.831921025774431 | 1.3077e-07 | au |
i | 18.19347009681783 | 6.6702e-06 | deg |
node | 326.1947543955459 | 1.2044e-05 | deg |
peri | 177.2590805708318 | 3.6925e-05 | deg |
M | 26.76605275487334 | 3.5892e-05 | deg |
tp | 2459126.420960018771 (2020-Oct-03.92096002) | 9.9114e-05 | TDB |
period | 996.3536513013422 2.73 | 6.468e-06 1.771e-08 | d yr |
n | .3613174895578516 | 2.3456e-09 | deg/d |
Q | 2.072650554173997 | 8.97e-09 | au |
|
| | Orbit Determination Parameters
Additional Information
|